Volver al catálogo

STARLINK-37517

ActivoComunicacionesVLEO
NORAD 69254·PAYLOAD·🇺🇸 United States

Lanzado May 20, 2026 desde Vandenberg Space Force Base

Loading…

Próximos Pases (próximas 24 horas)

TLE

ActualizadoSource: CelesTrak SupGP

Época: Sep 14, 2026, 21:10 UTC

1 69254C 26117S   26257.88243056 -.00070670  00000+0 -20887-2 0  2576
2 69254  53.1579 179.7168 0001400  87.8668  83.6928 15.34414395    11

Sigue STARLINK-37517 en tiempo real con AllMySat

Download on the App Store